Wind_Speed
45 46 45 45 44 44 44 43 44 44 44 44 45 46 46 46 46 46 46 46 47 47 46 46 47 46 46 46 46 45 46 47 47 46 47 47 47 46 46 46 46 47 48
45 46 45 44 44 44 44 44 44 45 45 45 45 45 45 46 46 47 47 47 48 47 47 47 47 46 46 46 47 46 47 47 48 48 49 49 47 47 47 47 48 48 48
44 45 46 45 45 46 46 45 46 45 44 44 44 45 45 45 46 47 47 47 48 48 47 46 46 47 48 47 47 47 47 47 48 49 49 48 48 48 49 49 49 49 49
44 45 46 47 46 46 46 46 46 46 46 45 45 46 46 45 45 46 46 47 47 48 47 47 47 49 49 48 48 48 48 48 48 48 47 47 48 48 49 49 49 49 49
42 43 44 45 45 45 45 45 46 46 46 45 46 47 47 46 45 45 46 47 48 48 48 47 47 47 47 48 48 48 48 48 48 47 46 46 46 47 47 48 48 48 47
41 41 42 43 43 43 43 44 45 45 44 43 44 44 45 47 46 45 45 45 46 46 46 46 46 46 46 47 47 47 47 46 46 45 45 45 46 46 46 46 46 46 47
39 40 40 41 42 43 43 42 42 43 44 43 43 44 44 44 44 43 43 43 43 43 44 44 45 45 45 45 45 46 46 46 45 45 45 46 45 45 44 44 44 45 46
37 36 38 39 40 41 42 42 42 42 43 43 42 42 43 44 44 44 43 43 43 43 44 44 43 43 44 44 44 44 45 45 45 45 45 45 44 43 43 44 44 45 45
35 35 36 37 37 38 39 40 40 40 41 40 40 40 41 42 43 43 42 42 41 41 41 41 41 43 43 44 44 44 44 44 45 44 44 44 44 43 44 45 45 46 46
33 34 34 34 34 35 36 37 37 38 39 39 39 39 39 39 39 40 39 39 39 38 39 41 42 43 43 43 43 42 43 43 43 44 44 44 44 44 45 45 46 45 45
32 32 32 32 33 34 34 35 35 36 37 37 37 37 37 38 37 38 39 39 39 38 38 40 41 41 41 41 42 42 42 42 42 43 43 43 44 44 44 44 44 44 44
30 31 32 32 32 32 34 35 35 35 35 35 35 36 36 36 36 37 38 38 38 38 38 38 39 39 39 39 40 41 41 41 42 41 41 42 43 43 43 42 43 44 44
29 30 31 32 32 32 33 34 35 35 35 34 35 35 35 36 36 38 38 38 38 37 37 37 37 37 38 39 40 40 41 42 42 42 41 41 42 42 42 42 43 42 42
28 30 31 31 32 32 32 32 33 34 34 34 33 34 35 35 36 37 38 39 39 38 38 37 37 37 38 38 39 40 41 41 41 41 40 39 40 41 41 41 40 40 40
28 29 30 31 31 31 31 31 32 32 33 33 33 33 33 34 34 34 35 35 36 36 36 37 38 38 38 38 39 40 40 40 40 40 40 39 39 39 40 40 40 40 40
26 26 27 28 30 31 30 31 31 32 32 32 32 33 33 33 33 34 34 35 36 37 37 37 37 38 38 38 39 39 39 39 39 39 39 39 39 39 40 40 40 40 40
26 26 26 26 27 28 29 30 31 31 31 32 32 32 32 32 32 32 34 34 35 36 36 37 37 37 37 38 38 37 37 38 38 38 38 38 39 39 39 39 39 39 39
26 26 27 27 27 27 28 29 30 31 31 31 32 32 31 31 32 32 33 34 34 35 35 36 37 37 37 37 37 38 38 38 38 38 38 38 38 38 39 39 38 38 37
25 25 25 26 26 27 27 28 28 29 30 30 31 31 31 31 32 33 33 33 33 34 34 35 36 36 36 36 37 37 37 37 37 37 37 37 38 38 37 37 37 36 36
25 25 25 26 26 26 27 27 28 28 29 29 30 30 30 31 31 31 32 32 33 33 34 34 34 35 35 36 36 36 37 36 36 36 36 36 36 36 36 35 35 34 34
24 25 26 26 26 26 26 27 28 28 28 28 29 29 29 30 30 31 32 32 32 32 33 34 34 34 35 35 35 35 35 35 35 35 35 35 35 35 35 35 34 33 33
24 24 24 25 25 25 25 25 26 26 26 27 27 28 28 29 30 31 32 32 33 33 34 34 34 33 33 34 34 34 34 34 34 33 33 33 33 33 33 33 33 32 32
22 23 23 24 24 24 24 25 25 25 26 26 26 27 27 28 29 30 31 31 32 32 33 33 33 33 33 33 33 32 32 32 32 32 32 32 32 32 32 31 31 30 30
21 21 22 23 23 24 25 25 25 26 26 27 27 27 27 27 28 28 29 29 30 31 31 31 32 32 31 31 31 31 31 31 31 31 31 31 31 31 30 29 29 28 27
20 21 21 21 22 22 23 24 25 25 26 26 27 27 27 27 28 28 29 29 29 30 30 30 31 31 30 31 31 30 30 30 30 30 29 29 29 29 28 27 25 25 24
20 20 20 21 21 22 22 23 23 24 24 25 25 26 27 27 28 29 29 30 30 30 29 29 29 29 28 28 28 28 28 28 27 27 27 27 27 26 26 24 23 23 22
Wind_Direction
255 254 252 251 252 252 254 254 254 254 255 255 256 256 258 259 258 259 260 262 263 265 266 266 267 268 269 271 273 274 275 276 276 277 278 280 281 282 282 282 284 285 286
254 253 251 251 253 252 253 253 254 253 253 254 255 258 260 260 260 261 260 261 263 265 267 267 268 269 270 272 273 275 276 277 277 278 278 279 280 281 281 282 283 285 286
254 253 252 253 254 254 253 253 253 254 255 255 255 256 258 260 261 261 262 262 263 264 266 267 269 270 270 272 273 275 276 277 278 279 279 279 280 281 281 283 284 284 285
254 253 255 254 254 254 252 253 253 254 255 255 255 257 257 259 262 263 263 263 263 264 265 266 268 270 270 271 272 274 276 278 279 280 279 280 280 281 282 283 284 285 286
254 255 255 254 253 253 253 252 253 254 255 256 257 258 259 261 263 266 267 266 264 265 265 267 268 269 270 271 272 275 277 278 278 279 279 280 280 282 283 284 284 285 286
256 256 256 254 252 252 252 252 252 253 255 257 257 259 261 263 265 266 266 266 264 265 265 267 267 270 271 273 274 276 278 278 278 279 279 280 281 282 283 284 284 285 286
258 257 255 253 252 252 252 253 253 255 257 259 259 260 262 264 265 266 265 266 265 265 266 267 268 269 272 273 275 277 277 277 277 278 279 281 282 283 283 284 285 286 288
258 257 255 253 251 253 254 255 256 257 257 259 261 262 262 263 264 265 266 266 265 266 267 268 269 271 273 274 276 278 278 278 278 279 281 282 283 282 283 284 286 286 288
257 256 256 253 251 252 253 255 257 257 257 258 260 260 261 263 264 265 265 264 265 268 269 270 271 272 273 276 277 277 278 277 278 278 280 281 282 282 284 284 285 286 288
259 257 254 252 252 252 253 254 256 258 258 259 258 260 261 262 262 262 263 263 265 269 270 271 273 275 276 276 277 277 277 278 278 278 280 281 281 281 283 285 286 287 287
259 256 254 255 254 254 254 254 255 257 258 259 258 260 261 260 260 262 262 263 267 269 271 272 273 275 276 276 276 277 279 278 279 280 280 281 282 283 284 285 286 287 288
259 257 256 256 256 254 254 255 254 256 257 256 256 259 262 261 262 262 260 263 266 268 270 273 274 274 274 275 275 276 278 279 280 281 280 281 282 284 285 285 285 287 288
261 260 258 257 259 259 257 256 256 257 257 257 258 259 261 263 263 264 264 265 267 268 270 272 273 273 274 276 276 277 277 278 279 281 281 282 283 283 284 284 286 286 288
264 262 259 257 258 257 256 258 257 257 258 260 260 261 260 262 263 264 266 268 269 270 271 273 274 276 277 278 278 278 278 280 281 281 283 283 282 283 283 285 286 286 287
265 263 261 259 257 258 258 258 257 257 259 261 262 263 263 263 264 264 265 267 269 270 273 275 276 277 278 278 279 280 280 281 282 282 283 283 283 284 285 286 286 286 287
267 264 262 261 260 259 260 259 259 260 260 262 264 264 265 266 266 266 266 267 269 272 275 276 277 277 278 278 278 279 280 280 281 282 283 283 284 284 285 286 286 287 287
267 264 264 263 261 260 261 262 262 262 262 263 265 266 267 267 268 268 268 268 270 272 274 276 278 279 278 278 278 279 280 280 280 281 282 283 285 285 285 285 286 286 287
266 266 265 264 263 262 263 264 264 264 264 264 264 266 268 269 269 270 270 270 271 272 274 276 278 279 279 279 278 279 280 280 280 281 282 283 284 285 285 285 286 286 287
269 268 267 265 264 263 263 264 264 265 264 264 265 266 267 268 269 270 271 271 271 272 274 276 278 279 279 278 278 279 280 279 280 280 282 283 284 285 285 284 284 285 286
270 270 269 269 268 265 265 266 267 266 265 265 265 266 266 267 268 270 271 271 272 273 275 277 278 279 279 279 279 279 279 279 280 281 282 284 284 285 284 285 285 284 285
269 269 270 270 269 268 268 268 267 267 266 265 266 267 267 267 267 269 270 272 272 273 276 277 278 278 278 278 279 279 278 279 280 281 282 283 284 284 285 285 285 284 284
270 269 270 271 270 269 268 267 267 266 266 268 268 268 268 269 270 271 272 272 273 275 276 277 277 277 278 279 279 279 279 279 280 281 282 283 283 284 285 286 285 284 284
272 271 271 271 271 270 269 268 267 266 267 269 269 269 270 271 273 274 275 275 276 277 278 278 278 279 280 280 280 280 281 281 282 282 283 283 284 284 285 285 285 285 284
274 274 274 274 273 271 270 269 269 269 269 270 271 271 272 273 274 275 276 277 278 278 279 280 281 281 281 281 282 282 282 283 283 284 284 283 284 284 285 285 285 284 283
278 277 277 277 276 274 272 271 271 271 271 272 272 274 275 275 275 275 277 279 280 281 281 281 282 282 282 282 282 283 283 284 283 284 284 284 284 284 285 285 284 283 282
281 280 279 280 279 277 275 274 273 272 272 273 274 275 276 277 276 277 279 280 282 282 282 281 282 282 283 283 283 283 283 284 283 283 284 285 285 284 283 283 282 281 281
Height
5658 5661 5664 5666 5668 5670 5673 5675 5677 5678 5680 5682 5683 5685 5687 5688 5690 5691 5693 5694 5696 5697 5698 5698 5699 5699 5699 5699 5698 5697 5696 5695 5694 5694 5692 5690 5688 5685 5683 5680 5677 5675 5672
5647 5650 5652 5655 5657 5659 5661 5663 5665 5667 5669 5671 5672 5674 5675 5676 5678 5679 5681 5683 5684 5685 5686 5687 5687 5687 5687 5687 5686 5685 5684 5682 5681 5680 5679 5677 5675 5672 5669 5667 5664 5662 5659
5635 5638 5641 5643 5645 5647 5649 5651 5654 5655 5657 5658 5660 5662 5664 5665 5666 5668 5669 5671 5672 5673 5674 5675 5675 5675 5675 5675 5674 5673 5672 5670 5668 5667 5666 5664 5662 5659 5657 5654 5651 5649 5646
5624 5626 5628 5630 5632 5634 5637 5640 5642 5644 5645 5647 5649 5651 5652 5654 5655 5656 5657 5658 5659 5661 5662 5662 5663 5663 5663 5662 5661 5660 5659 5658 5656 5654 5652 5651 5649 5647 5644 5642 5639 5636 5633
5613 5615 5616 5618 5620 5622 5625 5628 5630 5632 5634 5636 5637 5639 5641 5642 5643 5644 5644 5645 5647 5648 5649 5650 5650 5650 5650 5649 5648 5647 5646 5645 5643 5641 5640 5638 5636 5634 5631 5629 5626 5624 5621
5601 5603 5605 5607 5609 5611 5614 5616 5618 5620 5622 5624 5626 5627 5629 5630 5631 5632 5632 5633 5634 5635 5636 5637 5638 5638 5637 5637 5636 5635 5633 5632 5630 5629 5627 5625 5623 5621 5619 5616 5613 5611 5609
5591 5593 5594 5596 5598 5600 5602 5604 5606 5609 5611 5612 5614 5616 5617 5618 5619 5620 5620 5621 5622 5623 5624 5624 5625 5625 5625 5624 5623 5622 5621 5619 5618 5617 5615 5613 5611 5609 5607 5604 5601 5598 5596
5581 5583 5584 5586 5588 5590 5592 5594 5596 5598 5600 5601 5603 5604 5605 5607 5608 5608 5609 5610 5611 5612 5612 5613 5613 5613 5613 5613 5612 5610 5609 5607 5606 5605 5603 5601 5598 5596 5594 5592 5589 5587 5584
5572 5573 5575 5576 5578 5580 5583 5584 5586 5588 5589 5591 5592 5593 5594 5595 5596 5597 5597 5598 5600 5601 5601 5601 5601 5601 5602 5601 5600 5599 5597 5596 5594 5592 5591 5589 5586 5584 5582 5580 5577 5574 5572
5564 5565 5566 5567 5569 5571 5573 5575 5576 5578 5579 5580 5581 5582 5583 5584 5585 5586 5586 5587 5589 5589 5590 5590 5590 5589 5589 5588 5587 5586 5586 5584 5583 5581 5579 5577 5575 5572 5570 5567 5565 5562 5559
5555 5556 5557 5559 5560 5562 5563 5565 5566 5568 5568 5570 5571 5571 5572 5573 5574 5575 5576 5577 5578 5578 5578 5578 5578 5578 5577 5576 5575 5575 5574 5572 5571 5569 5567 5565 5563 5561 5558 5555 5552 5550 5547
5547 5548 5549 5550 5551 5552 5554 5555 5556 5557 5559 5559 5560 5561 5562 5563 5564 5565 5566 5566 5566 5567 5567 5567 5567 5566 5566 5564 5564 5563 5562 5560 5559 5557 5555 5554 5551 5549 5546 5544 5541 5538 5535
5539 5539 5540 5541 5542 5543 5545 5546 5547 5548 5549 5549 5551 5552 5552 5553 5553 5555 5555 5555 5556 5556 5556 5556 5556 5555 5554 5553 5553 5551 5550 5548 5547 5545 5544 5542 5539 5537 5535 5532 5529 5526 5523
5530 5531 5531 5532 5533 5534 5535 5536 5537 5538 5539 5540 5541 5542 5543 5543 5544 5545 5545 5545 5546 5546 5545 5545 5544 5544 5543 5542 5541 5539 5538 5536 5535 5534 5532 5530 5527 5525 5523 5520 5518 5515 5512
5522 5522 5522 5523 5524 5525 5526 5527 5528 5529 5530 5531 5532 5532 5533 5533 5534 5534 5534 5535 5535 5535 5535 5534 5534 5533 5532 5531 5529 5528 5526 5524 5523 5522 5520 5518 5516 5514 5511 5509 5506 5503 5501
5513 5513 5514 5514 5515 5517 5517 5518 5518 5519 5520 5521 5522 5522 5523 5523 5524 5524 5524 5525 5525 5525 5524 5524 5523 5522 5520 5519 5518 5517 5515 5513 5512 5510 5508 5506 5504 5502 5500 5497 5495 5492 5489
5506 5506 5506 5506 5507 5508 5508 5509 5510 5510 5511 5512 5512 5513 5514 5514 5514 5514 5515 5515 5514 5514 5514 5513 5512 5510 5509 5508 5507 5505 5504 5502 5500 5499 5497 5495 5493 5490 5488 5486 5483 5481 5478
5498 5498 5498 5498 5498 5499 5499 5500 5500 5501 5502 5502 5503 5504 5504 5504 5504 5504 5505 5505 5504 5504 5503 5502 5501 5500 5498 5497 5495 5494 5492 5491 5489 5488 5486 5483 5481 5479 5477 5474 5472 5470 5467
5490 5490 5490 5490 5490 5490 5490 5491 5491 5492 5493 5493 5494 5494 5495 5495 5495 5495 5495 5495 5494 5493 5492 5491 5490 5489 5487 5486 5484 5483 5481 5479 5478 5476 5474 5472 5470 5468 5465 5463 5461 5459 5457
5482 5482 5482 5482 5481 5481 5481 5482 5482 5483 5484 5484 5485 5485 5485 5485 5486 5485 5485 5485 5484 5483 5482 5481 5479 5478 5477 5475 5473 5472 5470 5468 5467 5465 5463 5461 5459 5457 5455 5453 5451 5449 5447
5475 5474 5474 5473 5473 5473 5473 5473 5474 5474 5475 5475 5476 5476 5476 5476 5476 5476 5476 5475 5474 5473 5472 5470 5469 5467 5466 5464 5463 5461 5459 5458 5456 5454 5452 5450 5448 5446 5444 5442 5440 5438 5437
5467 5466 5466 5466 5465 5465 5465 5465 5465 5466 5466 5467 5467 5467 5467 5467 5467 5467 5466 5465 5464 5463 5462 5460 5458 5457 5455 5454 5452 5450 5449 5447 5445 5443 5442 5440 5438 5436 5434 5432 5430 5428 5427
5459 5459 5458 5458 5458 5457 5457 5457 5458 5458 5458 5458 5458 5458 5458 5458 5458 5457 5456 5455 5454 5453 5451 5450 5448 5446 5445 5443 5442 5440 5439 5437 5435 5433 5432 5430 5428 5426 5424 5422 5421 5419 5417
5452 5452 5451 5451 5450 5450 5450 5450 5450 5450 5450 5450 5450 5449 5449 5449 5448 5448 5447 5446 5444 5443 5441 5440 5438 5437 5435 5434 5432 5430 5429 5427 5425 5423 5422 5420 5418 5416 5415 5413 5411 5410 5408
5447 5446 5445 5444 5443 5443 5443 5442 5442 5442 5442 5442 5441 5441 5441 5440 5439 5439 5438 5436 5435 5433 5432 5430 5429 5428 5426 5424 5423 5421 5419 5417 5416 5414 5412 5410 5409 5407 5406 5404 5403 5401 5400
5440 5439 5438 5438 5437 5436 5436 5435 5435 5434 5434 5434 5433 5433 5432 5431 5431 5430 5429 5427 5426 5424 5423 5421 5420 5419 5417 5415 5414 5412 5410 5408 5407 5405 5403 5402 5400 5399 5398 5396 5395 5394 5393